sat.trackr.live / text

‹ back to catalog

2024-205B

NORAD 61895 · 2024-205B

PAYLOAD ACTIVE UNKNOWN

§ Identity

Operator
Country
PRC
Launch date
2024-11-11
Launch site
JSC
Launch vehicle
Mass (kg)
RCS (m²)

External: N2YO · Heavens-Above · Gunter

§ Orbital elements

Epoch: 2026-09-22T22:25:04.717632Z

Period
93.98 min
Inclination
97.4071°
Eccentricity
0.0010318
Mean motion
15.32295310 rev/d
Perigee alt
461.9 km
Apogee alt
476.0 km
Semi-major
6,847.1 km
B*
2.5919e-4
RAAN
343.5459°
Arg perigee
53.9395°
Mean anomaly
306.2801°
Rev number
10,364

§ Raw data

2024-205B1 61895U 24205B   26265.93408238  .00008016  00000+0  25919-3 0  99932 61895  97.4071 343.5459 0010318  53.9395 306.2801 15.32295310103644

JSON: /api/v1/satellites/61895 · /tle

For live sub-satellite position, see the globe view (requires WebGL).

§ Visibility from observer

Set your observer location to see the next 7 days of passes ≥ 10°. The values pass through the URL so the page stays shareable.

No JS? Fill the form by hand. The geolocation button needs JavaScript.